Wellsville, NY

3:15 AM EDT on April 30, 2017 (GMT -0400)
Wellsville Municipal-Tarantine

Weather History for KELZ - November, 2012

Change the Weather History Date:

Monday, November 5, 2012

  Actual Average (KDSV) Record (KDSV)
Temperature  
Mean Temperature 30 °F -  
Max Temperature 32 °F 52 °F 73 °F (2015)
Min Temperature 28 °F 34 °F 22 °F (1951)
Degree Days  
Heating Degree Days 35    
Moisture  
Dew Point 21 °F    
Average Humidity 69    
Maximum Humidity 75    
Minimum Humidity 60    
Precipitation  
Precipitation 0.00 in - - ()
Sea Level Pressure  
Sea Level Pressure 30.13 in    
Wind  
Wind Speed 7 mph (NNW)    
Max Wind Speed 9 mph    
Max Gust Speed -    
Visibility 10 miles    
Events      
Averages and records for this station are not official NWS values.
T = Trace of Precipitation, MM = Missing Value Source: NWS Daily Summary

Daily Weather History Graph

Daily Weather History Graph

Search for Another Location

Airport or City:

Trip Planner

Search our weather history database for the weather conditions in past years. The results will help you decide how hot, cold, wet, or windy it might be!

Date:

Astronomy

Nov. 05, 2012 Rise Set
Actual Time 6:50 AM EST 5:00 PM EST
Civil Twilight 6:20 AM EST 5:29 PM EST
Nautical Twilight 5:47 AM EST 6:02 PM EST
Astronomical Twilight 5:14 AM EST 6:35 PM EST
Moon 10:36 PM EST (11/5) 12:08 PM EST (11/5)
Length of Visible Light 11h 08m
Length of Day
10h 09m
Waning Gibbous, 63% of the Moon is Illuminated
Nov 5
Waning Gibbous
Nov 6
Last Quarter
Nov 13
New
Nov 20
First Quarter
Nov 28
Full

Hourly Weather History & Observations

Time (EST) Temp. Windchill Dew Point Humidity Pressure Visibility Wind Dir Wind Speed Gust Speed Precip Events Conditions
12:56 AM 30.0 °F 22.4 °F 21.9 °F 72% 30.09 in 10.0 mi NNW 8.1 mph - N/A   Overcast
1:56 AM 28.9 °F 20.4 °F 21.9 °F 75% 30.09 in 10.0 mi NNW 9.2 mph - N/A   Overcast
2:56 AM 28.9 °F 21.9 °F 21.9 °F 75% 30.09 in 10.0 mi North 6.9 mph - N/A   Overcast
3:56 AM 28.9 °F 21.1 °F 21.9 °F 75% 30.09 in 10.0 mi NW 8.1 mph - N/A   Overcast
4:56 AM 28.9 °F 21.1 °F 21.0 °F 72% 30.10 in 10.0 mi NW 8.1 mph - N/A   Overcast
5:56 AM 28.9 °F 21.9 °F 21.0 °F 72% 30.11 in 10.0 mi WNW 6.9 mph - N/A   Overcast
6:56 AM 28.9 °F 21.9 °F 21.0 °F 72% 30.12 in 10.0 mi NW 6.9 mph - N/A   Overcast
7:56 AM 28.9 °F 20.4 °F 21.0 °F 72% 30.14 in 10.0 mi WNW 9.2 mph - N/A   Overcast
8:56 AM 30.0 °F 21.7 °F 21.9 °F 72% 30.14 in 10.0 mi NW 9.2 mph - N/A   Overcast
9:56 AM 30.0 °F 24.1 °F 21.9 °F 72% 30.15 in 10.0 mi NNW 5.8 mph - N/A   Overcast
10:56 AM 30.9 °F 25.2 °F 21.9 °F 69% 30.17 in 10.0 mi NNW 5.8 mph - 0.00 in   Overcast
11:56 AM 30.9 °F 26.2 °F 21.9 °F 69% 30.16 in 10.0 mi NNW 4.6 mph - 0.00 in   Overcast
12:56 PM 30.9 °F 23.5 °F 21.9 °F 69% 30.14 in 10.0 mi WNW 8.1 mph - N/A   Overcast
1:10 PM 32.0 °F 25.6 °F 21.2 °F 64% 30.07 in 10.0 mi NW 6.9 mph - N/A   Overcast
1:26 PM 30.2 °F 22.6 °F 21.2 °F 69% 30.07 in 10.0 mi NW 8.1 mph - N/A   Overcast
1:56 PM 32.0 °F 27.5 °F 21.0 °F 64% 30.14 in 10.0 mi Variable 4.6 mph - N/A   Overcast
2:56 PM 32.0 °F 28.7 °F 19.9 °F 61% 30.15 in 10.0 mi North 3.5 mph - N/A   Overcast
3:56 PM 32.0 °F 25.6 °F 19.9 °F 61% 30.14 in 10.0 mi NNW 6.9 mph - N/A   Overcast
4:06 PM 32.0 °F 25.6 °F 19.4 °F 60% 30.07 in 10.0 mi NNW 6.9 mph - N/A   Overcast
4:35 PM 30.2 °F 23.4 °F 19.4 °F 64% 30.08 in 10.0 mi NW 6.9 mph - N/A   Overcast
4:44 PM 30.2 °F 23.4 °F 21.2 °F 69% 30.08 in 10.0 mi NNW 6.9 mph - N/A   Overcast
4:56 PM 30.9 °F 25.2 °F 21.9 °F 69% 30.15 in 10.0 mi NNW 5.8 mph - N/A   Overcast
5:31 PM 30.2 °F 23.4 °F 21.2 °F 69% 30.09 in 10.0 mi NNW 6.9 mph - N/A   Overcast
5:56 PM 30.0 °F 23.2 °F 21.9 °F 72% 30.17 in 10.0 mi NNW 6.9 mph - N/A   Overcast
6:56 PM 30.0 °F 25.2 °F 23.0 °F 75% 30.18 in 10.0 mi NNW 4.6 mph - N/A   Overcast
7:56 PM 30.0 °F 25.2 °F 23.0 °F 75% 30.19 in 10.0 mi NNW 4.6 mph - N/A   Overcast
8:56 PM 30.0 °F 25.2 °F 19.0 °F 64% 30.20 in 10.0 mi NNW 4.6 mph - N/A   Overcast
9:56 PM 30.0 °F 26.5 °F 19.9 °F 66% 30.20 in 10.0 mi NNE 3.5 mph - N/A   Overcast
10:56 PM 28.9 °F 25.2 °F 19.9 °F 69% 30.20 in 10.0 mi East 3.5 mph - N/A   Overcast
11:56 PM 28.9 °F - 19.9 °F 69% 30.20 in 10.0 mi Calm Calm - N/A   Overcast